Weather History for Dare County Gunnery Range, NC

Change the Weather History Date:

Saturday, December 14, 2013

  Actual Average (KMQI) Record (KMQI)
Temperature  
Mean Temperature 46 °F -  
Max Temperature 64 °F 53 °F 72 °F (1991)
Min Temperature 29 °F 40 °F 26 °F (2010)
Degree Days  
Heating Degree Days 18    
Moisture  
Dew Point 49 °F    
Average Humidity 89    
Maximum Humidity 100    
Minimum Humidity 66    
Precipitation  
Precipitation 0.75 in - - ()
Sea Level Pressure  
Sea Level Pressure 30.03 in    
Wind  
Wind Speed 8 mph (SSE)    
Max Wind Speed 32 mph    
Max Gust Speed 43 mph    
Visibility 10 miles    
Events Rain    
Averages and records for this station are not official NWS values.
T = Trace of Precipitation, MM = Missing Value Source: NWS Daily Summary

Daily Weather History Graph

Daily Weather History Graph

Search for Another Location

Airport:

Trip Planner

Search our weather history database for the weather conditions in past years. The results will help you decide how hot, cold, wet, or windy it might be!

Date:

Astronomy

Dec. 14, 2013 Rise Set
Actual Time 7:05 AM EST 4:51 PM EST
Civil Twilight 6:37 AM EST 5:19 PM EST
Nautical Twilight 6:05 AM EST 5:51 PM EST
Astronomical Twilight 5:34 AM EST 6:22 PM EST
Moon 3:08 PM EST (12/14) 4:27 AM EST (12/14)
Length of Visible Light 10h 42m
Length of Day
9h 45m
Waxing Gibbous, 93% of the Moon is Illuminated
Dec 14
Waxing Gibbous
Dec 17
Full
Dec 25
Last Quarter
Jan 1
New
Jan 7
First Quarter

Hourly Weather History & Observations

Time (EST) Temp. Windchill Dew Point Humidity Pressure Visibility Wind Dir Wind Speed Gust Speed Precip Events Conditions
12:56 AM 29.8 °F - 29.5 °F 99% 30.34 in 12.0 mi North 1.2 mph - N/A   Mostly Cloudy
1:56 AM 31.5 °F - 30.7 °F 97% 30.34 in 12.0 mi South 2.3 mph - N/A   Mostly Cloudy
2:56 AM 30.6 °F - 29.3 °F 95% 30.36 in 12.0 mi Calm Calm - N/A   Scattered Clouds
3:56 AM 30.7 °F - 30.4 °F 99% 30.35 in 12.0 mi Variable 1.2 mph - N/A   Mostly Cloudy
4:56 AM 32.2 °F - 31.5 °F 97% 30.33 in 12.0 mi East 2.3 mph - N/A   Mostly Cloudy
5:56 AM 31.8 °F 27.3 °F 30.9 °F 96% 30.33 in 12.0 mi NNE 4.6 mph - N/A   Mostly Cloudy
6:56 AM 34.3 °F - 31.3 °F 89% 30.34 in 12.0 mi NE 2.3 mph - N/A   Mostly Cloudy
7:56 AM 36.7 °F - 35.2 °F 95% 30.34 in 12.0 mi NE 2.3 mph - N/A   Mostly Cloudy
8:50 AM 41.0 °F - 39.2 °F 93% 30.34 in 12.0 mi North 2.3 mph - N/A   Light Drizzle
8:56 AM 40.6 °F 38.6 °F 38.5 °F 92% 30.35 in 12.0 mi North 3.5 mph - N/A   Light Drizzle
9:52 AM 44.6 °F 42.2 °F 39.2 °F 81% 30.34 in 12.0 mi ENE 4.6 mph - N/A   Mostly Cloudy
9:56 AM 45.5 °F 43.2 °F 38.1 °F 75% 30.34 in 12.0 mi NE 4.6 mph - N/A   Mostly Cloudy
10:56 AM 46.6 °F - 38.7 °F 74% 30.31 in 12.0 mi ENE 5.8 mph - N/A   Mostly Cloudy
11:56 AM 50.7 °F - 39.7 °F 66% 30.23 in 12.0 mi East 12.7 mph - N/A   Mostly Cloudy
12:56 PM 54.9 °F - 44.1 °F 67% 30.15 in 12.0 mi East 11.5 mph - N/A   Partly Cloudy
1:56 PM 58.5 °F - 48.9 °F 71% 30.12 in 12.0 mi SE 9.2 mph 15.0 mph N/A   Mostly Cloudy
2:25 PM 59.0 °F - 51.8 °F 77% 30.10 in 12.0 mi SE 6.9 mph - N/A Rain Light Rain
2:56 PM 57.0 °F - 53.6 °F 88% 30.06 in 12.0 mi ESE 6.9 mph - N/A Rain Light Rain Showers
3:05 PM 57.2 °F - 53.6 °F 88% 30.05 in 12.0 mi SE 4.6 mph - N/A   Overcast
3:56 PM 60.8 °F - 51.4 °F 71% 30.01 in 12.0 mi SSE 18.4 mph 25.3 mph N/A   Mostly Cloudy
4:56 PM 61.0 °F - 52.5 °F 74% 29.96 in 12.0 mi SSE 19.6 mph 31.1 mph N/A   Mostly Cloudy
5:56 PM 60.6 °F - 53.4 °F 77% 29.93 in 12.0 mi South 15.0 mph 31.1 mph N/A   Mostly Cloudy
6:56 PM 60.3 °F - 54.5 °F 81% 29.89 in 12.0 mi South 20.7 mph 31.1 mph N/A   Mostly Cloudy
6:59 PM 60.8 °F - 53.6 °F 77% 29.89 in 12.0 mi South 19.6 mph 31.1 mph N/A Rain Light Rain
7:56 PM 59.0 °F - 55.2 °F 87% 29.86 in 12.0 mi South 16.1 mph 27.6 mph 0.02 in Rain Light Rain Showers
8:36 PM 57.2 °F - 55.4 °F 94% 29.84 in 7.0 mi South 16.1 mph 24.2 mph N/A Rain Light Rain Showers
8:56 PM 57.6 °F - 55.6 °F 93% 29.81 in 8.0 mi South 15.0 mph 24.2 mph 0.06 in Rain Light Rain Showers
9:30 PM 59.0 °F - 57.2 °F 94% 29.79 in 4.0 mi South 23.0 mph 28.8 mph N/A Rain Light Rain
9:48 PM 59.0 °F - 57.2 °F 94% 29.79 in 4.0 mi South 20.7 mph 31.1 mph N/A Rain Light Rain
9:53 PM 60.8 °F - 60.8 °F 100% 29.78 in 3.0 mi South 21.9 mph 34.5 mph N/A Rain Light Rain
9:56 PM 60.6 °F - 60.1 °F 98% 29.78 in 3.0 mi South 23.0 mph 34.5 mph 0.20 in Rain Light Rain
10:01 PM 62.6 °F - 60.8 °F 94% 29.77 in 2.8 mi South 19.6 mph 34.5 mph N/A Rain Rain
10:07 PM 62.6 °F - 62.6 °F 100% 29.78 in 2.8 mi South 32.2 mph 42.6 mph N/A Rain Rain
10:36 PM 64.4 °F - 62.6 °F 94% 29.80 in 3.0 mi WSW 13.8 mph 27.6 mph N/A Rain Heavy Rain
10:42 PM 64.4 °F - 62.6 °F 94% 29.79 in 5.0 mi SW 16.1 mph 31.1 mph N/A Rain Rain
10:56 PM 64.4 °F - 62.4 °F 93% 29.78 in 9.0 mi WSW 11.5 mph 21.9 mph 0.46 in Rain Light Rain
11:07 PM 64.4 °F - 62.6 °F 94% 29.77 in 12.0 mi SW 9.2 mph - N/A Rain Light Rain
11:22 PM 64.4 °F - 62.6 °F 94% 29.77 in 12.0 mi SW 9.2 mph - N/A   Mostly Cloudy
11:40 PM 64.4 °F - 62.6 °F 94% 29.77 in 12.0 mi West 9.2 mph 16.1 mph N/A   Mostly Cloudy
11:53 PM 62.6 °F - 62.6 °F 100% 29.76 in 12.0 mi West 10.4 mph - N/A Rain Light Rain Showers
11:56 PM 63.3 °F - 61.7 °F 94% 29.75 in 12.0 mi West 9.2 mph - 0.01 in Rain Light Rain Showers